Weather in Calangute

India     15°32′08″N   73°45′46″E
temp.,
°C
wind,
m/s
gust,
m/s
humid.,
%
clouds,
%
prec.,
mm/h
press.,
hPa
HPBL,
m
30 november, tue
tue3023:30+26e588166 0.4 1011332
02:30+25e4679100 0.0 1010266
05:30+25e588099 0.0 1010359
08:30+26e61177100 0.0 1012601
11:30+30ese7963100 0.0 1011903
14:30+31ese576053 0.0 1008546
17:30+29e7106663 0.0 1008551
20:30+27ese486898 0.0 1010343
1 december, wed
wed123:30+27se457077 0.1 1011231
02:30+26ese457268 0.0 1009204
05:30+25ese587695 0.0 1009346
08:30+26ese5107533 0.0 1011546
11:30+27ese696990 0.0 1010882
14:30+27ssw447189 0.1 1007264
17:30+27s5671100 1.7 1008447
20:30+26s5781100 3.6 1010468
2 december, thu
thu223:30+26s6980100 8.6 1010636
02:30+26sse5784100 4.8 1008503
05:30+25se5684100 7.3 1009513
08:30+25ese5783100 0.1 1012434
11:30+28sse687452 0.2 1011891
14:30+28s777770 0.3 1008864
17:30+27s4578100 1.2 1008669
20:30+26wsw228227 2.8 1011235
3 december, fri
fri323:30+26e118071 4.3 1011191
02:30+25e228732 0.4 1009134
05:30+24e22885 0.8 1009184
08:30+25e22832 0.9 1011158
11:30+27sw21708 1.8 1011562
14:30+27w3371100 0.1 1008592
17:30+27wnw337475 0.1 1009459
20:30+26n22752 0.0 1012423
4 december, sat
sat423:30+25ne228116 0.2 1011144
02:30+24ne228597 0.7 1009160
05:30+24ene338486 1.9 100993
08:30+24ene33825 1.7 1012140
11:30+28ese236345 1.8 1012555
14:30+28wsw326121 0.0 1009591
17:30+27w446998 0.0 1009310
20:30+27nnw227045 0.1 1012377